Total_Precipitation_Accumulation
0.00 0.00 0.00 0.01 0.01 0.01 0.01 0.01 0.00 0.00 0.00 0.00 0.00 0.00 0.00 0.00 0.00 0.00 0.00 0.00 0.00 0.00 0.01 0.02 0.05 0.06 0.09 0.12 0.15 0.15 0.14 0.11 0.10 0.10 0.10 0.10 0.11 0.12 0.13 0.14 0.14 0.15 0.16
0.00 0.01 0.01 0.01 0.01 0.01 0.01 0.00 0.00 0.00 0.00 0.00 0.00 0.00 0.00 0.00 0.00 0.00 0.00 0.00 0.00 0.00 0.01 0.02 0.06 0.09 0.13 0.16 0.19 0.20 0.19 0.15 0.13 0.11 0.11 0.11 0.12 0.13 0.14 0.15 0.16 0.16 0.17
0.01 0.01 0.01 0.01 0.01 0.01 0.01 0.00 0.00 0.00 0.00 0.00 0.00 0.00 0.00 0.00 0.00 0.00 0.00 0.00 0.00 0.00 0.00 0.02 0.05 0.09 0.13 0.17 0.20 0.23 0.25 0.23 0.20 0.17 0.14 0.14 0.13 0.14 0.15 0.17 0.18 0.19 0.19
0.01 0.01 0.01 0.01 0.01 0.01 0.01 0.01 0.01 0.02 0.01 0.01 0.01 0.01 0.00 0.00 0.00 0.00 0.00 0.01 0.01 0.00 0.00 0.01 0.03 0.06 0.10 0.13 0.17 0.23 0.28 0.30 0.28 0.25 0.22 0.19 0.18 0.18 0.19 0.20 0.22 0.24 0.26
0.03 0.02 0.01 0.02 0.02 0.02 0.02 0.03 0.02 0.02 0.02 0.02 0.01 0.01 0.01 0.01 0.01 0.00 0.01 0.01 0.01 0.01 0.01 0.01 0.01 0.02 0.05 0.08 0.12 0.20 0.29 0.36 0.35 0.33 0.32 0.31 0.29 0.28 0.29 0.30 0.30 0.31 0.33
0.07 0.05 0.03 0.03 0.04 0.04 0.04 0.04 0.04 0.04 0.03 0.03 0.03 0.02 0.01 0.01 0.01 0.01 0.01 0.01 0.01 0.01 0.01 0.02 0.02 0.02 0.02 0.05 0.11 0.18 0.28 0.36 0.40 0.39 0.38 0.39 0.38 0.38 0.39 0.40 0.39 0.38 0.38
0.12 0.10 0.07 0.08 0.08 0.07 0.07 0.08 0.08 0.07 0.06 0.08 0.07 0.04 0.02 0.01 0.01 0.01 0.01 0.01 0.01 0.02 0.02 0.02 0.03 0.04 0.06 0.08 0.12 0.15 0.20 0.28 0.37 0.42 0.42 0.42 0.43 0.44 0.48 0.51 0.52 0.51 0.49
0.19 0.16 0.13 0.13 0.11 0.09 0.09 0.10 0.12 0.12 0.11 0.12 0.12 0.10 0.04 0.01 0.01 0.02 0.02 0.01 0.02 0.02 0.02 0.04 0.05 0.06 0.08 0.10 0.10 0.10 0.12 0.16 0.27 0.40 0.44 0.42 0.41 0.44 0.48 0.53 0.58 0.62 0.63
0.33 0.27 0.21 0.18 0.16 0.14 0.12 0.14 0.17 0.17 0.16 0.15 0.14 0.17 0.12 0.04 0.03 0.02 0.02 0.03 0.03 0.02 0.03 0.04 0.05 0.06 0.06 0.06 0.07 0.07 0.08 0.11 0.16 0.28 0.41 0.45 0.46 0.48 0.52 0.60 0.67 0.76 0.81
0.40 0.37 0.31 0.26 0.22 0.20 0.17 0.17 0.20 0.21 0.23 0.19 0.16 0.14 0.15 0.12 0.13 0.07 0.03 0.03 0.05 0.04 0.05 0.06 0.06 0.07 0.07 0.08 0.09 0.10 0.14 0.17 0.21 0.33 0.50 0.60 0.67 0.75 0.83 0.90 0.98 1.06 1.08
0.42 0.41 0.36 0.32 0.27 0.24 0.25 0.26 0.26 0.27 0.27 0.24 0.22 0.20 0.21 0.18 0.16 0.17 0.10 0.05 0.07 0.08 0.08 0.08 0.07 0.08 0.09 0.10 0.12 0.18 0.26 0.32 0.39 0.50 0.63 0.78 0.93 1.06 1.17 1.26 1.36 1.46 1.53
0.34 0.35 0.37 0.35 0.32 0.30 0.30 0.31 0.33 0.34 0.35 0.34 0.31 0.28 0.30 0.27 0.23 0.25 0.24 0.15 0.15 0.14 0.14 0.15 0.14 0.14 0.15 0.16 0.19 0.27 0.32 0.38 0.47 0.56 0.72 0.93 1.07 1.16 1.27 1.38 1.47 1.55 1.67
0.25 0.26 0.28 0.30 0.33 0.36 0.38 0.39 0.38 0.37 0.40 0.40 0.39 0.37 0.36 0.33 0.33 0.37 0.38 0.30 0.23 0.19 0.18 0.19 0.20 0.22 0.24 0.26 0.30 0.38 0.42 0.48 0.54 0.64 0.79 0.96 1.03 1.03 1.03 1.08 1.18 1.28 1.36
0.25 0.27 0.28 0.31 0.34 0.36 0.37 0.39 0.39 0.39 0.41 0.41 0.42 0.42 0.40 0.38 0.38 0.40 0.43 0.49 0.47 0.38 0.33 0.32 0.33 0.38 0.42 0.44 0.49 0.54 0.50 0.56 0.58 0.62 0.72 0.84 0.89 0.81 0.74 0.78 0.88 0.98 1.07
0.21 0.22 0.26 0.28 0.30 0.31 0.33 0.35 0.35 0.35 0.35 0.35 0.36 0.38 0.39 0.38 0.39 0.42 0.47 0.57 0.70 0.71 0.59 0.51 0.52 0.55 0.56 0.56 0.58 0.53 0.47 0.56 0.59 0.59 0.62 0.65 0.66 0.64 0.60 0.60 0.64 0.69 0.74
0.15 0.17 0.19 0.22 0.23 0.24 0.26 0.27 0.27 0.27 0.28 0.29 0.30 0.33 0.35 0.36 0.39 0.43 0.48 0.57 0.67 0.81 0.80 0.66 0.60 0.61 0.62 0.59 0.60 0.50 0.44 0.51 0.49 0.50 0.51 0.52 0.51 0.49 0.49 0.51 0.54 0.57 0.59
0.12 0.13 0.15 0.16 0.17 0.17 0.18 0.19 0.20 0.20 0.23 0.25 0.26 0.29 0.32 0.35 0.39 0.44 0.50 0.58 0.67 0.77 0.83 0.75 0.65 0.60 0.57 0.52 0.47 0.38 0.32 0.30 0.29 0.36 0.37 0.36 0.36 0.37 0.37 0.39 0.43 0.48 0.51
0.09 0.10 0.11 0.12 0.11 0.12 0.12 0.14 0.15 0.17 0.19 0.22 0.24 0.27 0.31 0.36 0.43 0.50 0.55 0.60 0.63 0.64 0.65 0.61 0.52 0.45 0.40 0.35 0.29 0.23 0.18 0.16 0.15 0.21 0.22 0.22 0.23 0.24 0.25 0.27 0.31 0.39 0.45
0.08 0.08 0.08 0.08 0.08 0.09 0.10 0.12 0.13 0.15 0.17 0.21 0.25 0.29 0.34 0.38 0.42 0.44 0.45 0.45 0.44 0.41 0.40 0.39 0.34 0.29 0.25 0.21 0.18 0.14 0.10 0.08 0.07 0.09 0.10 0.10 0.12 0.15 0.19 0.23 0.27 0.30 0.31
0.07 0.07 0.07 0.06 0.07 0.07 0.09 0.10 0.13 0.16 0.22 0.27 0.31 0.35 0.38 0.39 0.38 0.36 0.33 0.32 0.30 0.26 0.23 0.24 0.25 0.22 0.19 0.15 0.13 0.10 0.07 0.05 0.04 0.03 0.04 0.06 0.09 0.13 0.14 0.13 0.13 0.11 0.11
0.07 0.07 0.08 0.10 0.11 0.13 0.16 0.19 0.23 0.28 0.33 0.36 0.37 0.38 0.37 0.37 0.34 0.29 0.24 0.21 0.19 0.19 0.23 0.27 0.27 0.22 0.15 0.10 0.07 0.04 0.04 0.04 0.02 0.02 0.03 0.04 0.04 0.04 0.03 0.03 0.04 0.05 0.08
0.16 0.17 0.20 0.23 0.27 0.32 0.45 0.45 0.41 0.40 0.40 0.38 0.35 0.30 0.27 0.26 0.22 0.20 0.18 0.18 0.20 0.25 0.32 0.37 0.30 0.18 0.07 0.03 0.03 0.05 0.09 0.13 0.09 0.02 0.04 0.02 0.01 0.01 0.01 0.01 0.04 0.07 0.11
0.33 0.36 0.41 0.47 0.53 0.60 0.65 0.57 0.49 0.38 0.35 0.31 0.27 0.22 0.17 0.13 0.11 0.09 0.09 0.11 0.15 0.21 0.23 0.20 0.13 0.04 0.03 0.04 0.11 0.19 0.17 0.18 0.12 0.02 0.05 0.04 0.02 0.02 0.02 0.02 0.03 0.05 0.07
0.56 0.63 0.69 0.69 0.68 0.65 0.59 0.47 0.37 0.29 0.24 0.20 0.15 0.11 0.08 0.06 0.04 0.06 0.09 0.14 0.11 0.07 0.05 0.03 0.03 0.04 0.05 0.07 0.15 0.26 0.23 0.15 0.06 0.02 0.04 0.06 0.02 0.02 0.01 0.01 0.02 0.03 0.06
0.73 0.73 0.69 0.62 0.52 0.43 0.33 0.24 0.16 0.12 0.09 0.07 0.04 0.03 0.03 0.02 0.03 0.11 0.17 0.17 0.08 0.02 0.00 0.02 0.06 0.06 0.06 0.05 0.06 0.15 0.21 0.23 0.14 0.02 0.02 0.04 0.03 0.02 0.02 0.01 0.01 0.03 0.05
0.54 0.45 0.36 0.27 0.19 0.14 0.09 0.05 0.03 0.02 0.01 0.01 0.00 0.01 0.01 0.03 0.08 0.16 0.16 0.13 0.05 0.02 0.04 0.03 0.01 0.00 0.00 0.00 0.02 0.09 0.27 0.49 0.36 0.17 0.01 0.08 0.12 0.15 0.23 0.03 0.01 0.01 0.02